User: anonymous   Login
Location: Unspecified
(0.0000°N, 0.0000°E)
Time: 10:49:55
(UTC+00:00)
Language:

NOSS 2-1 (C) - Orbit

View from above orbital plane
View from above orbital plane
View from above satellite
View from above satellite

Ground track
Ground track

The orbit data is extracted from the following two-line orbital elements,

1 20691U 90050C   18307.12347055 0.00000060  00000-0  12184-4 0    07
2 20691  63.3247 327.0895 0830000  38.1227 321.8773 13.41839849    04
Epoch (UTC): 03 November 2018 02:57:47
Eccentricity: 0.0830000
inclination: 63.3247°
perigee height: 481 km
apogee height: 1723 km
right ascension of ascending node: 327.0895°
argument of perigee: 38.1227°
revolutions per day: 13.41839849
mean anomaly at epoch: 321.8773°
orbit number at epoch: 0

The dashed part of the orbit path shows where the satellite is in the earth's shadow,  

DLR